Content
SEND FEEDBACK

Daily
Averages
Monthly
Summary
United States of America

PALISADE LAKES, COLORADO


Home > North America > United States > Colorado
Elevation: 2409 meters     Latitude: 37 27N     Longitude: 107 11W

WEATHER
 
SELECT A DAY
Number of Records: 114,709;   Date Range: 10/1/09 - 8/29/14
 
SHARE

PRINT THIS DATA

[ ← Previous Day ]
WEATHER ALMANAC - 5 FEBRUARY, 2013
[ Next Day → ]
[ °F ]   °C
Weather ElementAverageHighLow
Temperature-5.4 °C8.3 °C (3:15 pm) (2:15 am)
Dewpoint-10.9 °C-5.1 °C (9:35 am) (7:00 pm)
Humidity60.3 %95 % (1:35 am)27 % (1:55 pm)
Barometer1019 hPa1021 hPa (9:15 am)1017.6 hPa (1:55 pm)
Wind Speed1.3 km/h9.3 km/h (11:55 am)
Weather ElementAverage
Visibility15.9 km
Wind DirectionNNE (38.8 °)

Weather ElementTotal
Precipitation---
Heating Degree Days23.1 (Base 18.3)
Averaged from 68 records on 5 February, 2013
WEATHER CONDITIONS BREAKOUT
WIND DIRECTION BREAKOUT
WEATHER BY HOUR - 5 FEBRUARY, 2013
[ °F ]   °C
Local TimeTemperatureDewpointHumidityBarometerVisibilityWind DirectionWind SpeedGust SpeedPrecipitationEventsConditions
12:35 AM-7.9 °C-8.9 °C93 %1019.3 hPa16.1 kmCalmClear
12:55 AM-7.8 °C-8.8 °C93 %1019.3 hPa8 kmENE (70°)7.4 km/hClear
1:15 AM-8.1 °C-8.9 °C94 %1019.6 hPa16.1 kmCalmClear
1:35 AM-7.7 °C-8.4 °C95 %1019.3 hPa16.1 kmCalmClear
1:55 AM-8.2 °C-9 °C94 %1019.3 hPa16.1 kmCalmClear
2:15 AM-17.8 °C-17.8 °C1019.3 hPa16.1 kmCalmClear
2:35 AM-17.8 °C-17.8 °C1019.3 hPa16.1 kmCalmClear
2:55 AM-17.8 °C-17.8 °C1019 hPa16.1 kmCalmClear
3:15 AM-17.8 °C-17.8 °C1019 hPa16.1 kmCalmClear
3:35 AM-17.8 °C-17.8 °C1019 hPa16.1 kmCalmClear
3:55 AM-17.8 °C-17.8 °C1019.3 hPa16.1 kmCalmClear
4:15 AM-17.8 °C-17.8 °C1019.3 hPa16.1 kmCalmClear
4:35 AM-17.8 °C-17.8 °C1019.3 hPa16.1 kmCalmClear
4:55 AM-17.8 °C-17.8 °C1019.3 hPa16.1 kmCalmClear
5:15 AM-17.8 °C-17.8 °C1019.3 hPa16.1 kmCalmClear
5:35 AM-17.8 °C-17.8 °C1019.3 hPa16.1 kmCalmClear
5:55 AM-17.8 °C-17.8 °C1019.3 hPa16.1 kmCalmClear
6:15 AM-17.8 °C-17.8 °C1019.6 hPa16.1 kmCalmClear
6:35 AM-17.8 °C-17.8 °C1019.6 hPa16.1 kmCalmClear
6:55 AM-17.8 °C-17.8 °C1020 hPa16.1 kmCalmClear
7:15 AM-17.8 °C-17.8 °C1020.3 hPa16.1 kmCalmClear
7:35 AM-17.8 °C-17.8 °C1020.3 hPa16.1 kmCalmClear
7:55 AM-17.8 °C-17.8 °C1020.7 hPa16.1 kmCalmClear
8:15 AM-17.8 °C-17.8 °C1020.7 hPa16.1 kmCalmClear
8:35 AM-17.8 °C-17.8 °C1020.7 hPa16.1 kmCalmClear
8:55 AM-17.8 °C-17.8 °C1020.7 hPa16.1 kmCalmClear
9:15 AM-17.8 °C-17.8 °C1021 hPa16.1 kmCalmClear
9:35 AM-3 °C-5.1 °C86 %1020.7 hPa16.1 kmCalmClear
9:55 AM-1.6 °C-6.5 °C70 %1020.7 hPa16.1 kmNNE (30°)5.6 km/hClear
10:15 AM-0.4 °C-7.2 °C61 %1020.7 hPa16.1 kmCalmClear
10:35 AM1.4 °C-7.1 °C54 %1020.7 hPa16.1 kmCalmClear
10:55 AM0 °C-7.3 °C58 %1020.7 hPa16.1 kmCalmClear
11:15 AM1.3 °C-7.8 °C51 %1020.3 hPa16.1 kmWSW (240°)5.6 km/hClear
11:35 AM2.4 °C-8.2 °C46 %1020 hPa16.1 kmCalmClear
11:55 AM3.5 °C-9.5 °C39 %1019.6 hPa16.1 kmSSW (210°)9.3 km/hClear
12:15 PM3.9 °C-10.3 °C35 %1019.3 hPa16.1 kmWSW (240°)5.6 km/hClear
12:35 PM4.7 °C-10.6 °C33 %1019 hPa16.1 kmWSW (240°)5.6 km/hClear
12:55 PM5.5 °C-10 °C32 %1019 hPa16.1 kmSW (220°)5.6 km/hClear
1:15 PM6 °C-10.5 °C30 %1018.3 hPa16.1 kmCalmClear
1:35 PM5.8 °C-9.8 °C32 %1018.3 hPa16.1 kmCalmClear
1:55 PM6.1 °C-11.9 °C27 %1017.6 hPa16.1 kmCalmClear
2:15 PM7.2 °C-9.2 °C31 %1017.9 hPa16.1 kmWSW (240°)5.6 km/hClear
2:35 PM7.1 °C-8.9 °C31 %1017.6 hPa16.1 kmCalmClear
2:55 PM7.9 °C-7.5 °C33 %1017.9 hPa16.1 kmCalmClear
3:15 PM8.3 °C-6.5 °C35 %1017.9 hPa16.1 kmSW (220°)7.4 km/hClear
3:35 PM7.9 °C-6.5 °C36 %1018.3 hPa16.1 kmCalmClear
3:55 PM8 °C-8 °C32 %1017.9 hPa16.1 kmSW (230°)7.4 km/hClear
4:15 PM8.1 °C-7.6 °C32 %1017.6 hPa16.1 kmCalmClear
4:35 PM7.5 °C-7 °C35 %1017.9 hPa16.1 kmSW (230°)5.6 km/hClear
4:55 PM7.2 °C-6.6 °C37 %1017.9 hPa16.1 kmSW (230°)5.6 km/hClear
5:15 PM7 °C-6.5 °C38 %1017.9 hPa16.1 kmWSW (240°)5.6 km/hClear
5:35 PM2.1 °C-5.6 °C57 %1017.9 hPa16.1 kmCalmClear
5:55 PM0.4 °C-5.6 °C64 %1018.3 hPa16.1 kmCalmClear
6:15 PM0.4 °C-5.7 °C64 %1018.3 hPa16.1 kmCalmClear
6:35 PM0.1 °C-5.2 °C68 %1018.3 hPa16.1 kmCalmClear
6:55 PM-2.6 °C-6.9 °C73 %1018.3 hPa16.1 kmCalmClear
7:15 PM-2.2 °C-6.6 °C72 %1018.3 hPa16.1 kmCalmClear
7:35 PM-2.6 °C-6.1 °C77 %1018.3 hPa16.1 kmCalmClear
7:55 PM-2.4 °C-5.9 °C77 %1018.3 hPa16.1 kmCalmClear
8:15 PM-2.7 °C-6.7 °C74 %1018.6 hPa16.1 kmCalmClear
8:35 PM-4.1 °C-7.1 °C80 %1018.6 hPa16.1 kmCalmClear
9:15 PM-4.2 °C-6.7 °C83 %1018.6 hPa16.1 kmCalmClear
9:35 PM-3.1 °C-6.1 °C80 %1018.6 hPa16.1 kmCalmClear
9:55 PM-3.6 °C-7 °C78 %1018.6 hPa16.1 kmCalmClear
10:15 PM-6 °C-7 °C93 %1018.3 hPa16.1 kmCalmClear
10:55 PM-5 °C-6.4 °C90 %1018.3 hPa16.1 kmCalmClear
11:15 PM-4.2 °C-6.2 °C86 %1018.3 hPa16.1 kmCalmClear
11:35 PM-6.6 °C-7.3 °C95 %1018.3 hPa16.1 kmCalmClear
Hourly data recorded from KPSO, located 0 kilometers away from Palisade Lakes, Colorado







STORIES FROM OUR PARTNERS